This is the latest recevied weather packets stored in our database for station/object N7CEE-2. If no packets are shown the sender has not sent any weather packets the latest 10 day(s).
| Time | Temp. | Humidity | Pressure | Rain* | Wind** | Luminosity | Snow |
|---|---|---|---|---|---|---|---|
| 1777289505 | 12.78° C | 48% | 1014.7 hPa | 0 mm | - | 0 W/m² | - |
| 1777289201 | 13.33° C | 48% | 1014.9 hPa | 0 mm | - | 0 W/m² | - |
| 1777288898 | 13.33° C | 49% | 1014.8 hPa | 0 mm | - | 0 W/m² | - |
| 1777288594 | 13.33° C | 49% | 1014.8 hPa | 0 mm | - | 0 W/m² | - |
| 1777288291 | 13.33° C | 48% | 1014.8 hPa | 0 mm | - | 0 W/m² | - |
| 1777287988 | 13.33° C | 47% | 1014.8 hPa | 0 mm | - | 0 W/m² | - |
| 1777287685 | 13.33° C | 47% | 1014.9 hPa | 0 mm | - | 0 W/m² | - |
| 1777287381 | 13.33° C | 47% | 1014.5 hPa | 0 mm | - | 0 W/m² | - |
| 1777287076 | 13.33° C | 47% | 1014.8 hPa | 0 mm | - | 0 W/m² | - |
| 1777286774 | 13.33° C | 48% | 1014.4 hPa | 0 mm | - | 0 W/m² | - |
| 1777286472 | 12.78° C | 48% | 1014.5 hPa | 0 mm | - | 0 W/m² | - |
| 1777286169 | 13.33° C | 47% | 1014.3 hPa | 0 mm | - | 0 W/m² | - |
| 1777285866 | 13.89° C | 46% | 1014.4 hPa | 0 mm | - | 0 W/m² | - |
| 1777285563 | 13.89° C | 45% | 1014.5 hPa | 0 mm | - | 0 W/m² | - |
| 1777285261 | 13.89° C | 44% | 1014.4 hPa | 0 mm | - | 0 W/m² | - |
| 1777284958 | 13.89° C | 45% | 1014.5 hPa | 0 mm | - | 0 W/m² | - |
| 1777284654 | 13.89° C | 44% | 1014.4 hPa | 0 mm | - | 0 W/m² | - |
| 1777284351 | 13.89° C | 45% | 1014.4 hPa | 0 mm | - | 0 W/m² | - |
| 1777284048 | 14.44° C | 45% | 1014.6 hPa | 0 mm | - | 0 W/m² | - |
| 1777283744 | 13.89° C | 45% | 1014.4 hPa | 0 mm | - | 0 W/m² | - |
| 1777283443 | 14.44° C | 45% | 1014.1 hPa | 0 mm | - | 0 W/m² | - |
| 1777283142 | 14.44° C | 44% | 1014.1 hPa | 0 mm | - | 0 W/m² | - |
| 1777282838 | 14.44° C | 43% | 1014.3 hPa | 0 mm | - | 0 W/m² | - |
| 1777282533 | 14.44° C | 44% | 1014.3 hPa | 0 mm | - | 0 W/m² | - |
| 1777282230 | 14.44° C | 44% | 1014.3 hPa | 0 mm | - | 0 W/m² | - |
* Rain latest hour (hover to see other rain measurements)
** Current wind speed in m/s (hover to see current wind gust speed)